Location: Newark
(44.3681°N, 100.3364°W)
Time: 15:50:18
(UTC+00:00)

Vanguard 1 Rocket - Visible Passes

Search period start: 26 February 2020 00:00
Search period end: 07 March 2020 00:00
Orbit: 650 x 4226 km, 34.3° (Epoch: 25 February)

Date Brightness Start Highest point End Pass type
(mag) Time Alt. Az. Time Alt. Az. Time Alt. Az.
26 Feb 9.0 10:28:02 18° SE 10:28:02 18° SE 10:29:23 10° SE visible
26 Feb 8.9 12:47:06 10° SW 12:48:57 12° SSW 12:50:45 10° S visible
27 Feb 8.4 11:38:07 20° SSW 11:38:32 21° SSW 11:41:56 10° SSE visible
28 Feb 9.0 10:30:56 18° SE 10:30:56 18° SE 10:32:19 10° SE visible
29 Feb 11.3 04:14:34 10° S 04:15:44 11° S 04:15:44 11° S visible
29 Feb 8.6 11:41:03 17° SSW 11:41:17 17° SSW 11:44:23 10° SSE visible
01 Mar 11.2 03:05:51 10° SSE 03:08:55 12° SSE 03:08:55 12° SSE visible
01 Mar 9.1 10:33:53 17° SSE 10:33:53 17° SSE 10:35:09 10° SE visible
02 Mar 11.0 04:14:02 10° SSW 04:19:29 17° S 04:19:29 17° S visible
02 Mar 8.9 11:44:03 14° SSW 11:44:03 14° SSW 11:46:27 10° S visible
03 Mar 10.9 03:03:00 10° S 03:12:45 18° SSE 03:12:45 18° SSE visible
03 Mar 11.2 05:27:35 10° SW 05:30:06 14° SW 05:30:06 14° SW visible
03 Mar 9.2 10:36:56 15° SSE 10:36:56 15° SSE 10:37:53 10° SSE visible
04 Mar 11.0 01:55:49 10° SSE 02:02:10 12° SE 02:06:04 11° SE visible
04 Mar 10.8 04:14:14 10° SSW 04:23:25 24° S 04:23:25 24° S visible
04 Mar 9.2 11:47:09 10° SSW 11:47:09 10° SSW 11:47:28 10° SSW visible
05 Mar 10.6 03:02:01 10° SSW 03:16:45 24° SSE 03:16:45 24° SSE visible
05 Mar 11.0 05:28:54 10° SW 05:34:06 20° SW 05:34:06 20° SW visible
05 Mar 9.4 10:40:06 11° SSE 10:40:06 11° SSE 10:40:24 10° SSE visible
06 Mar 10.8 01:51:53 10° S 02:04:40 18° SE 02:10:07 15° SE visible
06 Mar 10.5 04:14:56 10° SW 04:27:28 31° S 04:27:28 31° S visible
